AGEN POKER | JUDI ONLINE | JUDI BOLA | POKER INDONESIA | AGEN CASINO ONLINE | BANDAR BOLA TERPERCAYA | SITUS JUDI BOLA ONLINE TERBESAR DAN TERPERCAYA DI INDONESIA
xjudi
Klik189
TEXASPOKER77 Agen Poker Kiu Kiu Online Indonesia Terpercaya

Jackpot

Texas Poker Multi Jackpot System

Kini Telah hadir Jackpot SUPER ROYAL FLUSH

Kini Telah hadir Jackpot 2000 (khusus table VIP keatas).

Ikutilah global jackpot yang tersedia di system kami, dengan system jackpot terbaru dan pertama di indonesia, anda dapat membeli jackpot dengan harga 100 rupiah saja dan menangkan hadiahnya hingga puluhan juta rupiah.

Jackpot bukanlah suatu keharusan untuk dibeli, namun kami memberikan suatu fitur tambahan untuk member tercinta dari www.pokergenic.com.

Terdapat tiga pilihan harga jackpot yang bisa anda beli yaitu :100,500,1000 dan 2000(khusus table VIP Keatas) rupiah.

Hadiah dari Multi jackpot system www.pokergenic.com

  1. full house x 10 harga jackpot yang anda beli.
      (contoh:anda membeli 1000 maka:1000 X10 = 10.000)
  2. four of kind x 250 harga jackpot yang anda beli
      (contoh:anda membeli 1000 maka:1000 X250 = 250.000)
  3. Straight flush x 1200
      (contoh:anda membeli 1000 maka:1000 X1200 = 1.200.000)
  4. Royal flush x 10000 harga jackpot yang anda beli
      (contoh:anda membeli 1000 maka:1000 X10000 = 10.000.000)
  5. SUPER ROYAL FLUSH x 30000 harga jackpot yang anda beli
      (contoh:anda membeli 1000 maka:1000 X30000 = 30.000.000)

Kondisi kartu

  1. full house adalah kondisi kartu dimana kartu anda dan kartu tengah dengan total 7 kartu bisa mendapatkan nilai 5 kartu dengan kombinasi 1 tris(three of kind) dan 1 pair, contoh 3 kartu 10 dan 2 kartu 5
  2. Four of kind adalah kondisi kartu dimana kartu anda dan kartu tengah dengan total 7 kartu bisa mendapatkan nilai 5 kartu dengan kombinasi 4 kartu yang sama jumlah dan 1 kartu apapun juga contoh anda mendapatkan 4 buah kartu angka 3 dan 1 kartu apapun.
  3. Staright flush adalah kondisi kartu dimana kartu anda dan kartu tengah dengan total 7 kartu bisa mendapatkan nilai 5 kartu dengan kombinasi seri / staright dengan kembang yang sama contoh : urutan kartu dari angka 5, 6, 7, 8 , 9 10 dengan kembang yg sama misalnya as hati
  4. Royal flush adalah kondisi kartu dimana kartu anda dan kartu tengah dengan total 7 kartu bisa mendapatkan nilai 5 kartu dengan kombinasi seri / staright dengan kembang yang sama tetapi kartu tersebut haruslah dimulai dari 10. contoh 10, Queen, Jack, King dan aces dengan kembang yang sama
  5. Super Royal flush adalah kondisi kartu dimana Kedua kartu anda digabung dengan 3 kartu pertama meja haruslah royal flush. contoh kartu anda 10,Queen kembang sama dan 3 kartu pertama meja adalah Jack, King dan aces dengan kembang yang sama

Demikian adalah penjelasan dari Multi Jackpot www.pokergenic.com terima kasih dan selamat bermain salam hoki dari kami

Texas Poker Jackpot Winner

TOP SUPER ROYAL FLUSH
No.TanggalNamaPriceWin
124/06 17:20FAI50N9Super Royal flush6,000,000
224/06 14:14ISANASuper Royal flush6,000,000
324/06 10:18SYPHON88Super Royal flush3,000,000
424/06 09:01MONJUBOY9Super Royal flush30,000,000
524/06 07:31IRSOE24Super Royal flush30,000,000
TOP ROYAL FLUSH
No.TanggalNamaPriceWin
124/06 21:10MELYANA22Royal flush5,000,000
224/06 21:07ROZULRoyal flush2,000,000
324/06 20:58CA1D50E2Royal flush2,000,000
424/06 20:52WEDUS1Royal flush20,000,000
524/06 20:25PERMANENJPRoyal flush2,000,000
TOP STRAIGHT FLUSH
No.TanggalNamaPriceWin
124/06 21:19DARMAN0111Straight Flush240,000
224/06 21:16NYAKWAW911Straight Flush120,000
324/06 21:153NDHUTStraight Flush600,000
424/06 21:14ABANG474Straight Flush1,200,000
524/06 21:12NARUTO8QStraight Flush120,000
LATEST JACKPOT
No.TanggalNamaPriceWin
124/06 21:19VIKCYD4Full House2,000
224/06 21:19ZAKI112206Full House10,000
324/06 21:19TEXASKOPIFull House10,000
424/06 21:19L4ABK73E9YFull House500
524/06 21:19S3LUBANGFull House1,000
624/06 21:19IAN300Full House1,000
724/06 21:19C51DB6F6Full House1,000
824/06 21:19HASILHINOFull House5,000
924/06 21:19MANTO17Full House2,000
1024/06 21:19BATTHORFull House2,000
1124/06 21:19NAMSFITRSFull House2,000
1224/06 21:19ADB920B5Full House20,000
1324/06 21:19MOJAKENFull House5,000
1424/06 21:19RAULKEJAMFull House5,000
1524/06 21:19ACUNG73Full House5,000
1624/06 21:19TONGGA22Full House10,000
1724/06 21:19BARBAR30Full House2,000
1824/06 21:19RAWU085Full House2,000
1924/06 21:19KHAN0716Full House2,000
2024/06 21:19BETIMBANGFull House5,000
2124/06 21:19SEMBOLE833Full House5,000
2224/06 21:19C03ANGIT79Full House2,000
2324/06 21:19KENZUL73Full House20,000
2424/06 21:19GGNSU4N171Full House10,000
2524/06 21:19JENGGOT123Full House5,000
2624/06 21:19VALKASS78Full House10,000
2724/06 21:19SAIPANNURFull House2,000
2824/06 21:19NYAKODIEFull House1,000
2924/06 21:19DEAR88Full House10,000
3024/06 21:19ADE00146Full House5,000
3124/06 21:19AC1D1DB7Full House5,000
3224/06 21:19OE2WV3G618Full House5,000
3324/06 21:19KICKANDY27Four Of A Kind50,000
3424/06 21:19AUTOOFull House5,000
3524/06 21:19C72663D3Full House2,000
3624/06 21:19AAAAAIEY18Full House1,000
3724/06 21:19NG99999Full House2,000
3824/06 21:19W17AY4Full House1,000
3924/06 21:19UUS264Full House5,000
4024/06 21:19MIKROTIK321Full House1,000
4124/06 21:19ALDEBARON2Full House2,000
4224/06 21:19KIBAS23Full House500
4324/06 21:19JOIN_375Full House1,000
4424/06 21:19DARMAN0111Straight Flush240,000
4524/06 21:19AUDI_RS4Full House1,000
4624/06 21:19ZHABUK55Full House1,000
4724/06 21:19BONTO55Full House5,000
4824/06 21:19HIGHTEMPZFull House10,000
4924/06 21:19LEMUTU97Full House2,000
5024/06 21:19D4B35A9BFull House2,000

Domino Multi Jackpot System

Ikutilah global jackpot yang tersedia di system kami, dengan system jackpot terbaru dan pertama di indonesia, anda dapat membeli jackpot dengan harga 100 rupiah saja dan menangkan hadiahnya hingga puluhan juta rupiah.

Jackpot bukanlah suatu keharusan untuk dibeli, namun kami memberikan suatu fitur tambahan untuk member tercinta dari www.pokergenic.com.

Terdapat tiga pilihan harga jackpot yang bisa anda beli yaitu :100,500 dan 1000 rupiah.

Hadiah dari Multi jackpot system www.pokergenic.com

  1. Murni Kecil x 50 harga jackpot yang anda beli.
      (contoh:anda membeli 1000 maka:1000 X 50 = 50.000)
  2. Murni Besar x 50 harga jackpot yang anda beli
      (contoh:anda membeli 1000 maka:1000 X 50 = 50.000)
  3. BALAK x 100 harga jackpot yang anda beli
      (contoh:anda membeli 1000 maka:1000 X 100 = 100.000)
  4. ENAM DEWA x 6666 harga jackpot yang anda beli
      (contoh:anda membeli 1000 maka:1000 X 6666 = 6.666.000)

Demikian adalah penjelasan dari Multi Jackpot www.pokergenic.com terima kasih dan selamat bermain salam hoki dari kami

Domino Jackpot Winner

TOP ENAM DEWA
No.TanggalNamaPriceWin
124/06 19:423MGVGFFDMmurni enam3,333,000
224/06 18:09CUPI266murni enam6,666,000
324/06 16:54DKH099murni enam6,666,000
424/06 12:28RUFI123murni enam666,600
524/06 10:33RUSMA12murni enam6,666,000
TOP BALAK
No.TanggalNamaPriceWin
124/06 21:18F6225B9Ebalak10,000
224/06 21:14BADEN6666balak50,000
324/06 21:09SAMSUNG030balak10,000
424/06 21:07EDC308AFbalak100,000
524/06 21:00HANESbalak50,000
LATEST JACKPOT
No.TanggalNamaPriceWin
124/06 21:19PANGGARANGmurni besar50,000
224/06 21:18NRDN03murni besar50,000
324/06 21:18F6225B9Ebalak10,000
424/06 21:17FN7N71L4P3murni besar25,000
524/06 21:17KABIR68murni besar50,000
624/06 21:17CHELLY08murni kecil25,000
724/06 21:17JB0GPJYL9Vmurni kecil5,000
824/06 21:17RENATO11murni kecil50,000
924/06 21:16BAU1602murni kecil5,000
1024/06 21:16M2T_AJAmurni kecil25,000
1124/06 21:16DWBTUSEI45murni besar50,000
1224/06 21:15MEKDONALmurni besar25,000
1324/06 21:14RENATO11murni besar50,000
1424/06 21:14BADEN6666balak50,000
1524/06 21:13ABAYOS99murni besar50,000
1624/06 21:13DE66_66WAmurni kecil25,000
1724/06 21:13BXU4HETHYIlucky9910,000
1824/06 21:10SUPER_D7lucky992,500
1924/06 21:10AGENJUDIBSmurni kecil50,000
2024/06 21:10010190lucky992,500
2124/06 21:09SAMSUNG030balak10,000
2224/06 21:09A8981B9Emurni kecil25,000
2324/06 21:08BORUTO137murni kecil50,000
2424/06 21:08MINOK123murni besar5,000
2524/06 21:08BOMERANG_lucky9925,000
2624/06 21:07EDC308AFbalak100,000
2724/06 21:07YAPRILmurni kecil25,000
2824/06 21:06WD_JP6699murni kecil25,000
2924/06 21:06ARB89661murni kecil5,000
3024/06 21:05ACEHKING84lucky9925,000
3124/06 21:05X721murni besar50,000
3224/06 21:05PIAN71murni besar5,000
3324/06 21:02MAHDALImurni besar50,000
3424/06 21:02ZDHAIRUDINmurni besar5,000
3524/06 21:02RIZALDY84murni kecil5,000
3624/06 21:02SADOYO01murni besar25,000
3724/06 21:01AMIER90murni kecil5,000
3824/06 21:00HANESbalak50,000
3924/06 21:00GOTAK69murni besar50,000
4024/06 20:59E303A52Fmurni besar25,000
4124/06 20:58LAMBEKE92murni kecil50,000
4224/06 20:58MOLORIAbalak100,000
4324/06 20:58A2Dmurni besar50,000
4424/06 20:57B5AC5220balak10,000
4524/06 20:56LK4DPANDAWA5balak100,000
4624/06 20:56TGM16murni besar5,000
4724/06 20:56BOMERANG_murni besar50,000
4824/06 20:56DM189094murni kecil25,000
4924/06 20:55FEI07murni besar50,000
5024/06 20:54PAHALA81murni kecil5,000

Ceme Multi Jackpot System

Jackpot dilihat dari gabungan kartu pemain dengan kartu bandar. Bandar harus membeli jackpot sebanyak jumlah player yang sedang duduk. Sebagai contoh bila terdapat 3 pemain duduk bermain, dan bandar memutuskan untuk membeli jackpot Rp 1.000, maka pada periode tersebut bandar akan membeli jackpot sebanyak 3xRp1.000 = Rp3.000.

Jackpot bukanlah suatu keharusan untuk dibeli, namun kami memberikan suatu fitur tambahan untuk member tercinta dari www.pokergenic.com.

Terdapat tiga pilihan harga jackpot yang bisa anda beli yaitu :100,500 dan 1000 rupiah.

Hadiah dari Multi jackpot system www.pokergenic.com

  1. Murni Kecil x 50 harga jackpot yang anda beli.
      (contoh:anda membeli 1000 maka:1000 X 50 = 50.000)
  2. Murni Besar x 50 harga jackpot yang anda beli
      (contoh:anda membeli 1000 maka:1000 X 50 = 50.000)
  3. BALAK x 200 harga jackpot yang anda beli
      (contoh:anda membeli 1000 maka:1000 X 200 = 200.000)
  4. ENAM DEWA x 6666 harga jackpot yang anda beli
      (contoh:anda membeli 1000 maka:1000 X 6666 = 6.666.000)

Demikian adalah penjelasan dari Multi Jackpot www.pokergenic.com terima kasih dan selamat bermain salam hoki dari kami

Ceme Jackpot Winner

TOP ENAM DEWA
No.TanggalNamaPriceWin
124/06 21:12AAN180396murni enam666,600
224/06 21:12MANUT999murni enam6,666,000
324/06 21:04JOHNZ26murni enam6,666,000
424/06 21:04F0OP81PP24murni enam3,333,000
524/06 19:43J3KL0murni enam3,333,000
TOP BALAK
No.TanggalNamaPriceWin
124/06 21:19BAYUNUGRO8balak100,000
224/06 21:19ANTONYNENObalak100,000
324/06 21:19MP4DH168balak200,000
424/06 21:19INDRAMALAbalak100,000
524/06 21:19MP4DH168balak200,000
LATEST JACKPOT
No.TanggalNamaPriceWin
124/06 21:19FFF98635murni kecil50,000
224/06 21:19BOGEL966murni kecil50,000
324/06 21:19GORGON18murni kecil50,000
424/06 21:19CULAK5857murni kecil25,000
524/06 21:19BAYUNUGRO8balak100,000
624/06 21:19ANTONYNENObalak100,000
724/06 21:19TILIL01murni kecil50,000
824/06 21:19MP4DH168balak200,000
924/06 21:19INDRAMALAbalak100,000
1024/06 21:19MP4DH168balak200,000
1124/06 21:19BOSE705balak200,000
1224/06 21:19LPTJOOSmurni besar50,000
1324/06 21:19ZOKERHITAMmurni kecil25,000
1424/06 21:19SUMARLIE80murni kecil5,000
1524/06 21:19PLOLO99murni kecil25,000
1624/06 21:19MAYORGA9murni kecil5,000
1724/06 21:18CERULIT_9murni kecil50,000
1824/06 21:18LURU57balak200,000
1924/06 21:18JONDOL8899balak200,000
2024/06 21:18AYO200balak100,000
2124/06 21:18OMPUZHAKYmurni kecil50,000
2224/06 21:18V2804SLPR0murni kecil50,000
2324/06 21:18GORGON18murni kecil50,000
2424/06 21:18XPDC10balak200,000
2524/06 21:18IZIN16murni kecil50,000
2624/06 21:18HANDAYAN16murni kecil50,000
2724/06 21:17SEUNGKO9balak100,000
2824/06 21:17GUDANGG9balak200,000
2924/06 21:17DEDENHOKI5murni besar25,000
3024/06 21:17FNKT9LZNH1murni besar50,000
3124/06 21:17MONNHHKE05murni kecil5,000
3224/06 21:17KUYI009murni kecil50,000
3324/06 21:17MONNHHKE05murni kecil5,000
3424/06 21:17MONNHHKE05murni kecil5,000
3524/06 21:17SRTLKIKJANG24murni kecil50,000
3624/06 21:17SANGEBOYZbalak100,000
3724/06 21:17AG023murni besar50,000
3824/06 21:17MUSA001murni besar50,000
3924/06 21:17PAULO303murni kecil5,000
4024/06 21:17JAKARTA282murni kecil50,000
4124/06 21:17ASRI699murni besar25,000
4224/06 21:17MBELUNG86murni besar50,000
4324/06 21:17NIA65balak200,000
4424/06 21:17ALUMNI212PAmurni besar50,000
4524/06 21:17RANDILANCIbalak20,000
4624/06 21:16LINGLUNG95murni kecil5,000
4724/06 21:16MOERY89murni kecil50,000
4824/06 21:16BC8C126Fbalak200,000
4924/06 21:16MP4DH168murni kecil50,000
5024/06 21:16INDRAMALAmurni kecil25,000